London, United Kingdom

10:08 AM BST on May 27, 2017 (GMT +0100)
Heathrow

Weather History for EGLL - January, 2013

Change the Weather History Date:

Wednesday, January 16, 2013

  Actual Average Record
Temperature  
Mean Temperature 29 °F -  
Max Temperature 32 °F 46 °F 53 °F (1999)
Min Temperature 26 °F 35 °F 26 °F (2013)
Degree Days  
Heating Degree Days 36    
Moisture  
Dew Point 27 °F    
Average Humidity 91    
Maximum Humidity 100    
Minimum Humidity 80    
Precipitation  
Precipitation 0.00 in - - ()
Sea Level Pressure  
Sea Level Pressure 29.93 in    
Wind  
Wind Speed 4 mph ()    
Max Wind Speed 7 mph    
Max Gust Speed -    
Visibility 3.2 miles    
Events Fog    
Averages and records for this station are not official NWS values.
T = Trace of Precipitation, MM = Missing Value Source: Averaged Metar Reports

Daily Weather History Graph

Daily Weather History Graph

Search for Another Location

Airport or City:

Trip Planner

Search our weather history database for the weather conditions in past years. The results will help you decide how hot, cold, wet, or windy it might be!

Date:

Astronomy

Jan. 16, 2013 Rise Set
Actual Time 7:59 AM GMT 4:24 PM GMT
Civil Twilight 7:21 AM GMT 5:02 PM GMT
Nautical Twilight 6:39 AM GMT 5:44 PM GMT
Astronomical Twilight 5:59 AM GMT 6:24 PM GMT
Moon 9:46 AM GMT (1/16) 10:47 PM GMT (1/16)
Length of Visible Light 9h 41m
Length of Day
8h 24m
Waxing Crescent, 26% of the Moon is Illuminated
Jan 16
Waxing Crescent
Jan 18
First Quarter
Jan 27
Full
Feb 3
Last Quarter
Feb 10
New

Hourly Weather History & Observations

Time (GMT) Temp. Windchill Dew Point Humidity Pressure Visibility Wind Dir Wind Speed Gust Speed Precip Events Conditions
12:20 AM 28.4 °F - 26.6 °F 93% 29.86 in 3.7 mi Variable 2.3 mph - N/A   Unknown
12:50 AM 28.4 °F 24.6 °F 24.8 °F 86% 29.86 in 3.1 mi NE 3.5 mph - N/A   Haze
1:20 AM 26.6 °F 22.6 °F 24.8 °F 93% 29.86 in - NNE 3.5 mph - N/A   Haze
1:50 AM 28.4 °F 24.6 °F 26.6 °F 93% 29.86 in 3.1 mi NE 3.5 mph - N/A   Unknown
2:20 AM 28.4 °F 21.2 °F 26.6 °F 93% 29.86 in - NE 6.9 mph - N/A   Haze
2:50 AM 28 °F - 27 °F 95% 29.86 in 1 mi NE 4.6 mph - -   Mist
2:50 AM 28.4 °F 23.3 °F 26.6 °F 93% 29.86 in 0.6 mi NE 4.6 mph - N/A   Mostly Cloudy
3:20 AM 28.4 °F 23.3 °F 26.6 °F 93% 29.86 in 0.2 mi ENE 4.6 mph - N/A Fog Light Freezing Fog
3:50 AM 28.4 °F - 28.4 °F 100% 29.86 in 0.7 mi Variable 2.3 mph - N/A   Mostly Cloudy
4:20 AM 28.4 °F 22.2 °F 28.4 °F 100% 29.86 in 1.1 mi ENE 5.8 mph - N/A   Mostly Cloudy
4:50 AM 30.2 °F 25.4 °F 28.4 °F 93% 29.86 in 1.8 mi ENE 4.6 mph - N/A   Mostly Cloudy
5:20 AM 28.4 °F 23.3 °F 28.4 °F 100% 29.86 in - East 4.6 mph - N/A   Mostly Cloudy
5:50 AM 29 °F - 28 °F 96% 29.86 in 3 mi ENE 4.6 mph - -   Mist
5:50 AM 28.4 °F 22.2 °F 28.4 °F 100% 29.86 in 2.2 mi ENE 5.8 mph - N/A   Mostly Cloudy
6:20 AM 28.4 °F 23.3 °F 28.4 °F 100% 29.86 in 2.2 mi East 4.6 mph - N/A   Mostly Cloudy
6:50 AM 28.4 °F 24.6 °F 26.6 °F 93% 29.86 in - Variable 3.5 mph - N/A   Mostly Cloudy
7:20 AM 28.4 °F 24.6 °F 26.6 °F 93% 29.86 in - Variable 3.5 mph - N/A   Mostly Cloudy
7:50 AM 28.4 °F 22.2 °F 26.6 °F 93% 29.86 in - NE 5.8 mph - N/A   Haze
8:20 AM 28.4 °F 23.3 °F 26.6 °F 93% 29.89 in 2.5 mi ENE 4.6 mph - N/A   Mostly Cloudy
8:50 AM 29 °F - 28 °F 93% 29.90 in 4 mi NE 4.6 mph - -   Light Haze
8:50 AM 30.2 °F 26.7 °F 28.4 °F 93% 29.89 in - Variable 3.5 mph - N/A   Haze
9:20 AM 30.2 °F 24.3 °F 28.4 °F 93% 29.89 in 3.1 mi ENE 5.8 mph - N/A   Haze
9:50 AM 30.2 °F 25.4 °F 28.4 °F 93% 29.89 in 3.1 mi NE 4.6 mph - N/A   Haze
10:20 AM 30.2 °F 25.4 °F 28.4 °F 93% 29.92 in 3.1 mi NE 4.6 mph - N/A   Haze
10:50 AM 30.2 °F 25.4 °F 28.4 °F 93% 29.92 in 3.1 mi NE 4.6 mph - N/A   Haze
11:20 AM 30.2 °F 26.7 °F 28.4 °F 93% 29.92 in 3.1 mi Variable 3.5 mph - N/A   Haze
11:50 AM 30 °F - 28 °F 86% 29.92 in 4 mi NNE 3.5 mph - -   Light Haze
11:50 AM 30.2 °F 25.4 °F 28.4 °F 93% 29.92 in - NNE 4.6 mph - N/A   Haze
12:20 PM 30.2 °F 26.7 °F 28.4 °F 93% 29.92 in 3.1 mi Variable 3.5 mph - N/A   Haze
12:50 PM 32.0 °F 28.7 °F 28.4 °F 87% 29.92 in 3.7 mi Variable 3.5 mph - N/A   Scattered Clouds
1:20 PM 32.0 °F 27.5 °F 28.4 °F 87% 29.92 in 3.7 mi North 4.6 mph - N/A   Scattered Clouds
1:50 PM 32.0 °F 26.4 °F 28.4 °F 87% 29.92 in 3.7 mi North 5.8 mph - N/A   Scattered Clouds
2:20 PM 32.0 °F 27.5 °F 28.4 °F 87% 29.95 in 3.7 mi NNE 4.6 mph - N/A   Scattered Clouds
2:50 PM 31 °F - 28 °F 85% 29.95 in 6 mi NE 4.6 mph - -   Light Haze
2:50 PM 32.0 °F 27.5 °F 28.4 °F 87% 29.95 in 3.7 mi North 4.6 mph - N/A   Partly Cloudy
3:20 PM 32.0 °F 27.5 °F 28.4 °F 87% 29.95 in 3.7 mi North 4.6 mph - N/A   Partly Cloudy
3:50 PM 30.2 °F 25.4 °F 28.4 °F 93% 29.95 in 3.7 mi North 4.6 mph - N/A   Partly Cloudy
4:20 PM 30.2 °F 25.4 °F 28.4 °F 93% 29.95 in 2.8 mi North 4.6 mph - N/A   Mist
4:50 PM 30.2 °F 26.7 °F 26.6 °F 86% 29.98 in 2.8 mi Variable 3.5 mph - N/A   Mist
5:20 PM 30.2 °F 25.4 °F 26.6 °F 86% 29.98 in 2.8 mi NE 4.6 mph - N/A   Haze
5:50 PM 29 °F - 28 °F 93% 29.99 in 4 mi North 3.5 mph - -   Light Haze
5:50 PM 28.4 °F 23.3 °F 26.6 °F 93% 29.98 in 3.7 mi North 4.6 mph - N/A   Unknown
6:20 PM 28.4 °F 24.6 °F 26.6 °F 93% 29.98 in 3.1 mi North 3.5 mph - N/A   Mist
6:50 PM 30.2 °F - 26.6 °F 86% 30.01 in 3.1 mi Variable 2.3 mph - N/A   Mist
7:20 PM 28.4 °F - 26.6 °F 93% 30.01 in 3.1 mi Variable 2.3 mph - N/A   Mist
7:50 PM 28.4 °F - 24.8 °F 86% 30.01 in 5.0 mi Variable 2.3 mph - N/A   Unknown
8:20 PM 28.4 °F - 24.8 °F 86% 30.01 in 5.6 mi Variable 2.3 mph - N/A   Unknown
8:50 PM 27 °F - 25 °F 91% 30.02 in 4 mi NE 2.3 mph - -   Light Haze
8:50 PM 28.4 °F - 24.8 °F 86% 30.01 in 5.0 mi NE 2.3 mph - N/A   Unknown
9:20 PM 30.2 °F - 24.8 °F 80% 30.01 in 5.0 mi Variable 2.3 mph - N/A   Unknown
9:50 PM 28.4 °F 24.6 °F 24.8 °F 86% 30.04 in 4.3 mi WNW 3.5 mph - N/A   Unknown
10:20 PM 28.4 °F - 24.8 °F 86% 30.04 in 3.7 mi Variable 2.3 mph - N/A   Unknown
10:50 PM 28.4 °F - 24.8 °F 86% 30.04 in 3.7 mi Calm Calm - N/A   Unknown
11:20 PM 30.2 °F - 24.8 °F 80% 30.04 in 3.7 mi NNW 2.3 mph - N/A   Unknown
11:50 PM 27 °F - 25 °F 91% 30.04 in 3 mi NNW 2.3 mph - -   Light Haze
11:50 PM 28.4 °F 24.6 °F 24.8 °F 86% 30.04 in 3.7 mi North 3.5 mph - N/A   Unknown